Location: ?????
(33.6267°N, 35.4675°E)
Time: 12:06:24
(UTC+00:00)

NOSS 3-1 (A) - Pass Details

Date: 12 November 2019
Orbit: 769 x 1443 km, 63.4° (Epoch: 09 December)

Event Time Altitude Azimuth Distance (km) Brightness Sun altitude
Rises 14:51:59 0° 175° (S) 3,227 6.4 -3.7°
Reaches altitude 10° 14:54:45 10° 160° (SSE) 2,329 5.5 -4.2°
Maximum altitude 14:58:51 23° 109° (ESE) 1,666 4.3 -5.0°
Drops below altitude 10° 15:03:16 10° 58° (ENE) 2,523 5.1 -5.9°
Enters shadow 15:04:52 - 50° (NE) 3,046 5.5 -6.2°
